Weather in Pudem

Russia / Udmurt Republic     58°18′15″N   52°09′46″E
temp.,
°C
wind,
m/s
gust,
m/s
humid.,
%
clouds,
%
prec.,
mm/h
press.,
hPa
HPBL,
m
27 january, thu
thu2701:00−12sw1496100 0.6 1015253
04:00−13wsw2596100 0.9 1015179
07:00−15sw2697100 0.2 1016169
10:00−15sw379687 0.3 1017265
13:00−13sw4691100 0.2 1018393
16:00−13sw3794100 0.3 1019376
19:00−14ssw389592 0.1 1020320
22:00−15ssw379690 0.3 1020245
28 january, fri
fri2801:00−16s269784 0.1 1021200
04:00−17sse269794 0.3 1021183
07:00−17sse2797100 0.2 1021199
10:00−16s279699 0.3 1021210
13:00−12ssw3692100 0.1 1021281
16:00−11sse379596 0.2 1020304
19:00−11se269780 0.1 1020156
22:00−11sse2897100 0.2 1020185
29 january, sat
sat2901:00−9se2896100 0.5 1019270
04:00−8se3995100 1.2 1018333
07:00−9ese3894100 0.1 1017230
10:00−9ese3893100 0.1 1016278
13:00−8se3790100 0.0 1015329
16:00−8se379491 0.0 1014301
19:00−10se3896100 0.0 1013218
22:00−10sse3894100 0.1 1012288
30 january, sun
sun3001:00−11se3795100 0.0 1011239
04:00−11se3795100 0.3 1010249
07:00−10se3895100 0.4 1008300
10:00−10se389599 0.9 1007314
13:00−8sse3691100 0.3 1006413
16:00−8se269576 0.4 1006243
19:00−9se279784 0.1 1006164
22:00−13ese239985 0.3 100534
31 january, mon
mon3101:00−13ese249894 0.1 100569
04:00−11ese249799 0.4 100598
07:00−10ese269796 0.3 1005122
10:00−7sse3109599 0.5 1005406
13:00−5sse41091100 0.1 1005605
16:00−5se51194100 0.4 1005620
19:00−5se51295100 0.9 1004631
22:00−4se51296100 1.8 1002593